Location: Cedar Springs
(43.2230°N, 85.5510°W)
Time: 08:16:04
(UTC-04:00)

Cosmos 2278 Rocket - Visible Passes

Search period start: 26 July 2016 00:00
Search period end: 05 August 2016 00:00
Orbit: 840 x 847 km, 71.0° (Epoch: 26 July)

Date Brightness Start Highest point End Pass type
(mag) Time Alt. Az. Time Alt. Az. Time Alt. Az.
26 Jul 2.8 21:59:38 10° S 22:04:46 37° ESE 22:09:56 10° NE visible
26 Jul 3.7 23:43:40 10° WSW 23:48:50 35° NW 23:54:03 10° N visible
27 Jul 2.8 21:45:11 10° SSE 21:50:16 35° ESE 21:55:22 10° NE visible
27 Jul 3.7 23:29:05 10° WSW 23:34:17 37° WNW 23:39:33 10° N visible
28 Jul 3.7 23:14:29 10° SW 23:19:45 38° WNW 23:25:02 10° N visible
29 Jul 3.6 22:59:54 10° SW 23:05:12 39° WNW 23:10:32 10° NNE visible
30 Jul 3.6 22:45:19 10° SW 22:50:39 41° WNW 22:56:02 10° NNE visible
31 Jul 5.1 05:54:47 10° N 05:58:59 21° NE 06:03:11 10° E visible
31 Jul 3.5 22:30:45 10° SW 22:36:07 43° WNW 22:41:31 10° NNE visible
01 Aug 5.2 05:40:19 10° N 05:44:26 20° NE 05:48:32 10° E visible
01 Aug 3.5 22:16:10 10° SW 22:21:34 44° WNW 22:27:01 10° NNE visible
02 Aug 5.2 05:25:50 10° N 05:29:53 19° NE 05:33:53 10° E visible
02 Aug 3.5 22:01:35 10° SW 22:07:02 46° WNW 22:12:30 10° NNE visible
03 Aug 5.2 05:11:22 10° N 05:15:19 19° NE 05:19:13 10° E visible
03 Aug 3.4 21:47:01 10° SW 21:52:30 48° WNW 21:58:00 10° NNE visible
04 Aug 5.2 04:56:54 10° N 05:00:44 18° NE 05:04:33 10° E visible
04 Aug 3.4 21:32:27 10° SW 21:37:57 50° WNW 21:43:29 10° NNE visible
04 Aug 5.8 23:22:56 10° NW 23:23:30 10° NW 23:24:03 10° NNW visible
